sat.trackr.live / text

‹ back to catalog

STARLINK-11495 [DTC]

NORAD 62275 · 2024-237J

PAYLOAD ACTIVE UNKNOWN

§ Identity

Operator
Country
US
Launch date
2024-12-08
Launch site
AFETR
Launch vehicle
Mass (kg)
RCS (m²)

Purposes: comms

External: N2YO · Heavens-Above · Gunter

§ Orbital elements

Epoch: 2026-05-25T04:05:54.109824Z

Period
91.67 min
Inclination
43.0013°
Eccentricity
0.0001886
Mean motion
15.70906099 rev/d
Perigee alt
355.0 km
Apogee alt
357.6 km
Semi-major
6,734.4 km
B*
1.9225e-3
RAAN
316.2400°
Arg perigee
28.6444°
Mean anomaly
331.4527°
Rev number
8,502

§ Raw data

STARLINK-11495 [DTC]1 62275U 24237J   26145.17076516  .00254648  00000+0  19225-2 0  99902 62275  43.0013 316.2400 0001886  28.6444 331.4527 15.70906099 85028

JSON: /api/v1/satellites/62275 · /tle

For live sub-satellite position, see the globe view (requires WebGL).

§ Visibility from observer

Set your observer location to see the next 7 days of passes ≥ 10°. The values pass through the URL so the page stays shareable.

No JS? Fill the form by hand. The geolocation button needs JavaScript.